Wind_Speed
34 34 34 35 35 35 36 37 38 39 41 41 41 41 41 42 42 42 42 42 42 42 42 43 43 44 45 45 45 45 46 46 47 47 47 47 47 47 47 46 46 46 46 46
35 35 35 36 36 36 37 38 39 40 41 43 43 43 43 43 43 43 44 44 43 43 43 44 44 44 45 46 47 47 47 48 49 49 49 49 49 49 49 49 48 48 48 48
36 36 36 36 37 38 39 40 41 42 43 43 44 43 43 43 44 44 44 44 43 43 44 45 45 45 46 46 47 48 48 49 50 50 50 51 51 51 51 51 50 50 50 49
36 36 37 37 37 39 40 40 41 43 44 44 44 46 43 43 43 44 43 44 44 43 44 44 45 46 47 47 48 48 49 49 50 50 51 52 52 52 52 52 52 52 52 51
37 37 38 38 38 40 41 42 42 43 44 45 44 47 46 45 44 44 44 44 44 44 44 45 45 46 47 47 47 48 49 50 50 51 51 52 53 53 53 54 54 53 53 53
38 38 39 40 40 41 42 42 43 44 44 46 44 47 47 45 45 45 45 45 45 45 45 45 45 46 47 47 48 48 49 50 51 52 52 53 54 55 55 55 55 54 54 54
38 38 39 40 41 41 41 41 43 44 45 46 44 46 47 45 45 45 45 44 44 44 45 45 45 46 47 48 48 49 50 50 52 53 53 54 54 55 55 56 56 55 55 55
40 40 39 40 40 41 41 41 42 44 45 45 44 45 45 45 44 44 44 44 44 45 45 45 46 46 47 48 49 49 50 50 52 53 54 54 55 55 56 56 56 57 56 56
39 40 40 39 39 40 40 41 42 43 45 46 46 45 44 43 43 43 43 44 44 44 45 45 46 47 47 48 49 50 51 51 51 52 53 55 55 56 56 56 56 57 57 57
38 40 39 40 40 40 40 40 40 41 43 45 45 44 43 41 41 42 42 42 43 44 45 45 46 47 48 48 49 50 50 51 51 51 52 54 55 55 55 55 56 56 56 57
40 40 40 40 40 40 39 39 40 41 42 43 44 43 41 41 41 41 41 41 42 44 45 45 46 47 47 48 49 49 50 51 51 52 52 52 54 55 55 55 55 56 56 56
39 41 41 40 40 40 40 40 40 41 40 41 42 42 40 40 40 41 41 41 42 43 44 45 46 46 47 47 48 49 49 50 51 51 51 52 53 54 55 55 55 55 56 56
40 41 42 41 40 40 40 39 39 40 40 39 40 40 40 41 40 41 42 43 43 44 44 44 45 45 46 47 48 48 49 49 50 50 51 51 52 53 54 55 55 55 55 56
40 41 41 40 39 40 39 38 37 38 38 38 37 38 38 39 40 40 41 42 42 42 43 44 43 44 45 46 46 47 47 48 48 49 50 51 51 52 53 54 54 55 55 56
39 40 40 39 38 38 37 36 35 34 34 35 35 36 37 37 39 40 41 41 42 41 42 42 42 43 43 43 44 44 45 45 46 47 48 49 50 51 52 53 53 54 55 55
39 40 40 38 36 36 35 34 32 32 34 35 36 36 35 36 38 38 39 40 40 40 40 40 41 41 41 41 41 41 42 43 44 45 46 47 48 49 50 51 51 52 53 53
37 38 39 38 36 36 34 32 31 33 33 34 35 36 36 36 36 36 37 38 39 39 39 39 40 39 39 39 39 39 40 41 42 43 45 46 46 47 48 48 49 50 50 50
36 36 37 36 35 35 33 31 31 32 33 34 35 35 35 35 35 35 36 37 37 38 38 39 39 39 38 39 39 39 39 39 40 40 41 42 43 44 45 46 47 47 47 47
34 33 34 33 33 33 31 30 32 33 33 34 35 35 35 34 34 34 36 37 37 37 37 37 38 38 38 37 37 37 37 38 38 38 39 39 40 41 42 43 43 43 44 44
31 31 31 31 31 32 32 31 32 34 34 33 34 34 34 35 35 34 34 35 35 35 36 36 36 36 36 35 35 35 35 36 36 36 36 36 37 37 38 38 40 40 41 42
30 30 30 30 32 32 32 32 33 33 34 33 33 33 34 35 35 35 34 34 34 35 36 36 36 36 35 34 34 34 34 34 34 34 34 34 35 35 35 36 37 38 38 38
30 31 31 31 32 31 31 31 32 32 33 33 33 34 34 35 35 34 34 34 35 35 36 36 35 35 34 33 32 32 33 33 34 34 34 34 34 34 34 35 35 35 35 36
30 29 29 30 30 30 30 31 31 32 33 33 34 34 35 34 34 34 35 35 35 35 36 35 35 35 34 33 32 32 32 33 33 33 33 34 34 34 34 33 34 34 34 34
28 29 30 30 29 29 30 31 32 32 33 34 34 34 34 34 34 34 34 34 34 34 35 35 34 33 33 33 32 32 32 32 32 32 32 33 33 33 32 32 33 33 33 33
28 28 29 29 29 29 29 30 30 31 31 32 33 33 33 33 33 33 33 33 34 34 34 34 33 32 32 32 31 31 31 31 31 31 31 31 31 30 30 30 31 32 32 33
27 27 28 29 29 30 29 30 30 31 31 32 32 32 32 33 33 33 33 34 34 34 33 32 31 31 30 30 31 31 31 31 31 31 30 30 29 29 28 29 29 31 33 33
Wind_Direction
282 282 282 282 281 280 280 280 280 280 280 279 278 277 276 276 275 275 274 273 272 270 269 268 267 265 264 263 262 262 261 260 260 259 260 260 260 261 261 262 262 263 264 264
283 283 283 281 280 280 280 281 281 281 281 280 279 278 278 278 278 277 276 274 272 270 269 268 268 266 265 263 262 261 261 260 260 260 260 260 260 261 261 262 262 263 263 264
286 286 285 283 282 282 282 282 283 283 282 281 281 280 280 279 279 278 277 275 273 271 270 269 268 267 266 264 263 262 262 262 261 261 260 261 261 261 262 262 263 263 263 263
287 287 285 284 284 284 284 283 283 283 283 283 283 282 281 281 280 279 278 275 273 272 271 270 269 268 267 265 264 264 263 263 262 261 261 261 261 261 262 262 262 263 263 263
289 288 287 285 285 285 285 285 284 284 284 284 284 284 284 283 282 280 278 276 274 273 272 271 269 268 267 266 266 265 264 263 262 262 262 261 261 261 261 262 262 262 263 263
289 289 288 287 287 287 287 286 284 284 284 284 285 285 285 285 284 282 279 277 276 275 274 272 271 269 268 267 266 265 265 264 263 262 262 262 262 262 262 262 262 262 262 262
290 289 289 289 289 288 287 287 286 286 286 286 287 286 286 285 284 282 280 279 278 276 275 273 272 270 268 267 266 266 266 265 264 263 262 262 262 262 262 262 262 262 262 262
291 290 291 291 290 290 290 288 287 287 288 288 287 286 287 286 284 282 281 280 279 277 275 274 272 270 269 268 267 267 267 265 265 264 263 263 262 262 262 262 262 262 262 262
293 292 292 292 292 291 291 289 289 288 288 287 286 286 285 284 283 281 280 280 279 278 276 275 273 271 270 270 269 268 267 266 266 265 264 263 263 262 262 262 262 262 263 262
293 293 293 293 292 292 292 291 290 288 288 289 288 288 288 285 283 282 281 281 280 278 277 276 274 274 272 271 270 269 269 268 266 266 266 264 263 263 263 263 263 263 263 263
293 293 294 294 293 292 292 291 290 288 287 288 289 288 287 286 285 284 283 281 279 279 277 276 275 274 273 272 271 270 270 269 267 266 266 265 264 263 263 263 263 263 263 264
293 293 293 294 293 292 291 291 290 289 288 287 287 288 287 285 285 284 283 281 279 278 278 277 276 275 274 274 273 272 271 269 268 267 266 266 265 264 263 263 263 264 264 264
293 293 294 294 293 292 292 291 289 288 287 286 286 287 287 286 285 283 283 282 281 280 278 278 277 277 276 275 275 274 272 271 269 268 267 267 266 265 263 263 263 264 265 265
292 294 295 294 294 293 292 291 290 289 288 288 287 287 286 286 285 284 283 284 284 282 280 279 279 278 278 277 277 275 275 272 270 269 268 268 267 266 265 264 264 264 265 265
294 295 295 294 294 293 292 291 290 289 289 289 289 288 288 288 287 286 285 285 285 284 282 280 280 280 280 279 278 277 276 274 272 271 270 269 268 267 266 265 265 266 266 266
295 296 295 294 294 292 291 291 290 289 290 291 290 290 290 290 289 288 287 286 286 286 284 282 282 283 282 281 280 279 279 277 274 273 272 271 269 268 267 267 267 267 267 266
296 297 296 296 295 292 291 292 290 290 290 291 292 292 292 291 290 290 288 287 287 287 287 286 285 284 283 282 282 282 281 280 277 275 274 272 270 269 269 269 268 267 266 265
296 296 296 296 295 292 294 292 292 292 292 293 295 294 294 294 294 293 292 291 290 289 289 288 286 286 285 284 284 284 283 282 279 278 277 274 273 272 271 270 268 267 266 265
297 296 296 296 295 295 295 295 295 295 295 295 296 296 296 296 297 297 296 295 294 293 292 291 290 288 287 286 285 284 283 282 281 280 279 277 275 273 272 271 269 268 267 266
297 296 295 296 295 296 299 298 297 297 297 297 297 297 298 298 298 299 298 297 296 295 293 293 292 290 288 287 287 285 284 283 282 282 281 279 277 276 274 272 271 269 268 267
297 295 295 295 297 298 299 298 299 299 300 299 298 298 298 299 300 300 299 298 297 296 295 294 293 291 289 289 289 287 285 284 283 283 283 281 279 278 276 275 273 271 269 269
297 296 296 295 297 301 301 299 299 300 299 300 300 300 300 300 300 300 301 300 299 299 297 296 294 292 291 290 289 289 287 286 286 285 284 283 282 280 278 276 274 272 271 269
296 296 296 295 297 298 299 299 299 300 301 302 301 301 301 301 301 301 301 301 300 301 300 298 296 294 293 291 290 290 289 289 288 287 285 284 284 281 279 276 274 273 272 271
296 296 296 295 296 296 297 298 300 301 303 304 304 304 303 303 303 302 302 303 302 303 302 301 299 297 294 292 291 290 290 290 289 289 288 286 284 283 280 277 276 275 274 273
298 297 297 296 297 297 298 299 300 302 304 305 305 306 305 304 305 306 306 305 305 305 305 303 300 298 296 294 291 290 290 290 290 289 288 287 285 283 281 279 277 276 276 276
300 298 297 298 299 299 299 300 300 302 304 305 306 306 306 306 306 307 307 307 307 306 306 305 303 301 298 295 293 291 291 291 290 289 288 286 285 284 283 281 280 279 279 278
Height
5713 5712 5710 5708 5706 5704 5702 5700 5699 5698 5695 5693 5693 5693 5692 5691 5690 5690 5689 5688 5688 5687 5687 5688 5688 5689 5690 5691 5692 5694 5695 5696 5697 5699 5700 5702 5703 5704 5705 5706 5707 5707 5708 5709
5704 5703 5701 5698 5696 5694 5692 5690 5689 5687 5685 5683 5682 5682 5681 5680 5679 5678 5677 5676 5676 5676 5676 5676 5676 5677 5677 5678 5679 5681 5682 5683 5685 5686 5687 5689 5690 5692 5693 5693 5694 5695 5696 5697
5695 5694 5691 5689 5687 5685 5683 5681 5679 5677 5674 5672 5670 5670 5670 5669 5667 5666 5665 5664 5663 5664 5664 5664 5664 5664 5665 5665 5667 5668 5669 5670 5671 5673 5674 5676 5677 5678 5680 5680 5681 5682 5683 5684
5685 5684 5681 5679 5677 5674 5673 5671 5668 5665 5662 5661 5660 5656 5659 5657 5656 5654 5653 5652 5651 5651 5651 5651 5651 5651 5652 5653 5654 5655 5656 5657 5658 5659 5660 5662 5663 5665 5666 5667 5667 5668 5669 5670
5676 5674 5671 5669 5667 5664 5662 5659 5657 5654 5650 5649 5648 5643 5646 5645 5643 5642 5641 5640 5638 5639 5639 5638 5638 5638 5639 5639 5640 5641 5642 5643 5644 5645 5646 5647 5648 5650 5651 5652 5653 5654 5655 5656
5666 5664 5661 5659 5657 5654 5650 5648 5645 5642 5639 5637 5638 5632 5632 5632 5631 5629 5628 5627 5626 5626 5626 5625 5625 5625 5625 5626 5626 5627 5628 5629 5630 5631 5631 5632 5633 5634 5636 5637 5638 5639 5640 5641
5657 5654 5652 5649 5646 5644 5641 5638 5634 5630 5627 5625 5626 5620 5620 5620 5618 5616 5616 5615 5613 5613 5612 5612 5612 5612 5612 5612 5613 5613 5613 5614 5615 5616 5616 5617 5618 5619 5620 5621 5622 5623 5624 5625
5645 5644 5642 5638 5635 5632 5630 5627 5624 5619 5616 5614 5613 5610 5610 5608 5606 5604 5603 5602 5600 5599 5599 5599 5599 5598 5598 5598 5598 5599 5599 5599 5599 5600 5601 5601 5602 5603 5604 5605 5606 5607 5608 5610
5635 5633 5631 5628 5625 5622 5618 5615 5613 5608 5604 5602 5601 5600 5599 5596 5594 5592 5591 5589 5588 5587 5586 5586 5585 5585 5584 5584 5584 5584 5584 5584 5584 5584 5585 5586 5586 5587 5588 5589 5590 5591 5592 5593
5624 5622 5621 5618 5615 5612 5609 5605 5602 5597 5593 5590 5589 5588 5587 5585 5583 5581 5579 5577 5576 5575 5573 5573 5572 5571 5570 5570 5569 5569 5568 5568 5568 5568 5569 5570 5571 5571 5572 5573 5574 5575 5576 5577
5615 5612 5611 5608 5605 5601 5599 5596 5591 5587 5584 5580 5577 5580 5576 5573 5571 5569 5568 5566 5564 5562 5561 5559 5559 5558 5557 5556 5555 5554 5554 5554 5554 5554 5554 5554 5555 5556 5557 5558 5558 5559 5560 5561
5605 5602 5599 5598 5595 5590 5587 5585 5581 5578 5575 5571 5567 5569 5565 5563 5560 5558 5556 5554 5552 5550 5548 5547 5546 5544 5543 5542 5541 5540 5539 5539 5539 5538 5539 5539 5539 5540 5541 5542 5543 5543 5544 5545
5595 5592 5588 5586 5586 5581 5577 5574 5570 5567 5564 5561 5558 5559 5555 5551 5549 5547 5545 5542 5540 5538 5536 5534 5533 5531 5530 5528 5527 5526 5525 5524 5523 5523 5523 5523 5524 5524 5525 5526 5527 5527 5528 5529
5584 5582 5579 5576 5573 5569 5566 5564 5560 5557 5553 5551 5549 5547 5545 5541 5538 5536 5534 5531 5528 5526 5524 5522 5520 5518 5517 5515 5513 5511 5510 5509 5509 5508 5508 5508 5508 5509 5509 5510 5511 5511 5512 5512
5574 5572 5569 5566 5562 5559 5556 5554 5551 5548 5545 5542 5540 5537 5535 5531 5528 5526 5523 5520 5517 5515 5512 5510 5508 5506 5504 5501 5499 5498 5496 5495 5494 5494 5494 5493 5493 5493 5493 5494 5494 5495 5495 5496
5564 5561 5558 5556 5553 5549 5546 5545 5542 5539 5536 5533 5530 5528 5525 5521 5518 5515 5512 5509 5506 5504 5501 5499 5496 5494 5491 5489 5487 5485 5483 5482 5481 5480 5479 5479 5478 5478 5478 5478 5478 5479 5479 5479
5555 5551 5548 5545 5543 5539 5538 5537 5533 5530 5527 5523 5520 5518 5514 5511 5508 5505 5501 5498 5495 5493 5490 5488 5485 5482 5480 5477 5475 5473 5471 5469 5468 5467 5466 5465 5464 5463 5463 5463 5463 5463 5463 5464
5546 5542 5538 5535 5533 5530 5532 5528 5524 5521 5518 5515 5511 5508 5505 5501 5498 5495 5491 5488 5485 5482 5479 5476 5473 5471 5468 5466 5463 5461 5459 5457 5455 5454 5452 5451 5450 5449 5449 5448 5448 5448 5448 5448
5537 5534 5530 5527 5523 5521 5522 5519 5515 5512 5510 5506 5502 5499 5496 5492 5489 5486 5482 5478 5475 5472 5468 5465 5462 5459 5457 5454 5452 5449 5447 5445 5443 5442 5440 5438 5437 5436 5435 5434 5434 5434 5434 5434
5529 5526 5523 5519 5515 5513 5514 5510 5506 5504 5501 5498 5494 5490 5486 5483 5480 5478 5473 5469 5465 5461 5458 5455 5451 5448 5446 5443 5440 5438 5436 5434 5432 5430 5428 5426 5424 5423 5422 5421 5420 5420 5420 5420
5521 5518 5515 5512 5508 5506 5505 5501 5498 5496 5493 5488 5485 5481 5477 5474 5470 5467 5463 5459 5455 5452 5448 5444 5441 5438 5435 5432 5430 5427 5425 5423 5421 5419 5417 5415 5413 5411 5410 5409 5408 5407 5407 5407
5513 5510 5508 5504 5501 5501 5496 5493 5491 5488 5483 5479 5476 5472 5468 5465 5461 5457 5453 5450 5446 5442 5438 5434 5430 5427 5425 5422 5419 5417 5414 5412 5410 5408 5406 5404 5402 5400 5398 5397 5396 5395 5395 5395
5506 5504 5500 5498 5497 5493 5489 5485 5482 5479 5475 5471 5468 5464 5460 5456 5452 5449 5445 5441 5436 5432 5428 5424 5420 5417 5414 5411 5409 5406 5404 5401 5399 5397 5395 5393 5391 5389 5387 5386 5385 5384 5383 5383
5499 5496 5492 5489 5487 5485 5481 5478 5474 5471 5467 5463 5459 5455 5451 5447 5444 5440 5436 5431 5427 5423 5419 5414 5411 5407 5405 5402 5399 5396 5394 5391 5389 5386 5384 5382 5380 5378 5376 5375 5374 5373 5372 5372
5492 5488 5485 5482 5480 5477 5474 5471 5467 5463 5460 5456 5452 5447 5443 5439 5435 5431 5427 5423 5418 5414 5409 5405 5401 5397 5394 5391 5389 5386 5384 5381 5379 5377 5374 5372 5370 5368 5366 5365 5364 5363 5362 5361
5485 5481 5478 5475 5473 5469 5467 5463 5459 5456 5452 5449 5444 5440 5436 5431 5427 5423 5419 5414 5410 5405 5400 5396 5392 5388 5385 5382 5379 5377 5374 5372 5370 5367 5365 5363 5361 5359 5357 5356 5355 5353 5352 5351